Location: Casco Millpond
(44.5581°N, 87.6111°W)
Time: 03:29:11
(UTC+00:00)

Tiangong - Visible Passes

Search period start: 09 March 2026 00:00
Search period end: 19 March 2026 00:00
Orbit: 381 x 391 km, 41.5° (Epoch: 8 March)

Date Brightness Start Highest point End Pass type
(mag) Time Alt. Az. Time Alt. Az. Time Alt. Az.
11 Mar 0.6 10:52:16 10° S 10:53:57 14° SSE 10:55:39 10° ESE visible
12 Mar -0.5 11:28:11 10° SW 11:30:59 28° SSE 11:33:48 10° E visible
13 Mar -0.2 10:30:52 19° S 10:31:40 20° SSE 10:34:07 10° ESE visible
14 Mar -1.1 11:06:24 15° SW 11:08:41 37° SSE 11:11:40 10° E visible
15 Mar -0.6 10:09:37 28° SSE 10:09:37 28° SSE 10:12:02 10° E visible
16 Mar -1.5 10:44:57 28° SW 10:46:13 44° S 10:49:17 10° E visible
17 Mar 0.0 09:48:01 24° ESE 09:48:01 24° ESE 09:49:36 10° E visible
17 Mar -1.5 11:20:13 10° W 11:23:12 45° S 11:26:17 10° ESE visible
18 Mar -1.8 10:23:15 46° SSW 10:23:33 48° S 10:26:38 10° ESE visible
